| time (UTC) | temp C | wind direction | speed KPH | gust KPH | rain 1hr cm | rain 24hr cm | rain mn cm | humidity % | barometer mb |
| 20260504090128 | 8 | 159 | 0.0 | 0.0 | 0.00 | 0.00 | 0.00 | 78 | |
| 20260504081558 | 9 | 160 | 0.0 | 0.0 | 0.00 | 0.00 | 0.00 | 75 | |
| 20260504081054 | 9 | 161 | 0.0 | 0.0 | 0.00 | 0.00 | 0.00 | 74 | |
| 20260504080551 | 9 | 161 | 0.0 | 0.0 | 0.00 | 0.00 | 0.00 | 74 | |
| 20260504050404 | 14 | 155 | 0.0 | 1.6 | 0.00 | 0.00 | 0.00 | 64 | |
| 20260504045901 | 14 | 163 | 0.0 | 3.2 | 0.00 | 0.00 | 0.00 | 63 | |
| 20260504045356 | 14 | 167 | 3.2 | 4.8 | 0.00 | 0.00 | 0.00 | 63 | |
| 20260504044853 | 14 | 157 | 0.0 | 4.8 | 0.00 | 0.00 | 0.00 | 63 | |
| 20260504044350 | 14 | 115 | 0.0 | 3.2 | 0.00 | 0.00 | 0.00 | 64 | |
| 20260504043848 | 14 | 165 | 0.0 | 1.6 | 0.00 | 0.00 | 0.00 | 64 | |
| 20260504043344 | 14 | 156 | 0.0 | 1.6 | 0.00 | 0.00 | 0.00 | 64 | |
| 20260504042842 | 14 | 145 | 0.0 | 1.6 | 0.00 | 0.00 | 0.00 | 63 | |
| 20260504042338 | 14 | 160 | 0.0 | 1.6 | 0.00 | 0.00 | 0.00 | 63 | |
| 20260504041834 | 15 | 157 | 0.0 | 0.0 | 0.00 | 0.00 | 0.00 | 63 | |
| 20260504041331 | 14 | 156 | 0.0 | 0.0 | 0.00 | 0.00 | 0.00 | 63 | |
| 20260504040827 | 14 | 162 | 0.0 | 0.0 | 0.00 | 0.00 | 0.00 | 63 | |
| 20260504040325 | 15 | 159 | 0.0 | 0.0 | 0.00 | 0.00 | 0.00 | 63 | |
| 20260504035820 | 15 | 156 | 0.0 | 0.0 | 0.00 | 0.00 | 0.00 | 62 | |
| 20260504035318 | 15 | 160 | 0.0 | 1.6 | 0.00 | 0.00 | 0.00 | 61 | |
| 20260504034815 | 15 | 161 | 0.0 | 1.6 | 0.00 | 0.00 | 0.00 | 61 | |
| 20260504034313 | 15 | 160 | 0.0 | 1.6 | 0.00 | 0.00 | 0.00 | 60 | |
| 20260504033809 | 15 | 147 | 0.0 | 3.2 | 0.00 | 0.00 | 0.00 | 60 | |
| 20260504033307 | 15 | 165 | 0.0 | 1.6 | 0.00 | 0.00 | 0.00 | 60 | |
| 20260504032804 | 15 | 150 | 0.0 | 1.6 | 0.00 | 0.00 | 0.00 | 60 | |
| 20260504032301 | 16 | 169 | 0.0 | 1.6 | 0.00 | 0.00 | 0.00 | 59 | |
| 20260504031757 | 16 | 165 | 0.0 | 1.6 | 0.00 | 0.00 | 0.00 | 59 | |
| 20260504031255 | 16 | 174 | 0.0 | 1.6 | 0.00 | 0.00 | 0.00 | 59 | |
| 20260504030751 | 16 | 172 | 0.0 | 3.2 | 0.00 | 0.00 | 0.00 | 58 | |
| 20260504030248 | 16 | 198 | 0.0 | 1.6 | 0.00 | 0.00 | 0.00 | 57 | |
| 20260504025744 | 16 | 155 | 0.0 | 1.6 | 0.00 | 0.00 | 0.00 | 57 | |
| 20260504025241 | 16 | 137 | 0.0 | 3.2 | 0.00 | 0.00 | 0.00 | 58 | |
| 20260504024738 | 16 | 156 | 0.0 | 1.6 | 0.00 | 0.00 | 0.00 | 57 | |
| 20260504024235 | 16 | 165 | 0.0 | 1.6 | 0.00 | 0.00 | 0.00 | 56 | |
| 20260504023732 | 16 | 195 | 1.6 | 3.2 | 0.00 | 0.00 | 0.00 | 56 | |
| 20260504023228 | 17 | 154 | 0.0 | 3.2 | 0.00 | 0.00 | 0.00 | 56 | |
| 20260504022724 | 17 | 168 | 0.0 | 1.6 | 0.00 | 0.00 | 0.00 | 56 | |
| 20260504022220 | 17 | 162 | 0.0 | 3.2 | 0.00 | 0.00 | 0.00 | 56 | |
| 20260504021718 | 17 | 161 | 0.0 | 4.8 | 0.00 | 0.00 | 0.00 | 55 | |
| 20260504021215 | 17 | 184 | 1.6 | 3.2 | 0.00 | 0.00 | 0.00 | 55 | |
| 20260504020712 | 17 | 167 | 1.6 | 3.2 | 0.00 | 0.00 | 0.00 | 54 | |
| 20260504020208 | 17 | 165 | 0.0 | 1.6 | 0.00 | 0.00 | 0.00 | 54 | |
| 20260504015704 | 17 | 184 | 1.6 | 1.6 | 0.00 | 0.00 | 0.00 | 54 | |
| 20260504015201 | 17 | 138 | 0.0 | 1.6 | 0.00 | 0.00 | 0.00 | 54 | |
| 20260504014656 | 17 | 160 | 1.6 | 1.6 | 0.00 | 0.00 | 0.00 | 53 | |
| 20260504014154 | 17 | 72 | 1.6 | 8.0 | 0.00 | 0.00 | 0.00 | 54 | |
| 20260504013651 | 17 | 163 | 0.0 | 1.6 | 0.00 | 0.00 | 0.00 | 53 | |
| 20260504013148 | 17 | 149 | 1.6 | 4.8 | 0.00 | 0.00 | 0.00 | 53 | |
| 20260504012645 | 17 | 135 | 0.0 | 3.2 | 0.00 | 0.00 | 0.00 | 52 | |
| 20260504012143 | 18 | 86 | 1.6 | 3.2 | 0.00 | 0.00 | 0.00 | 52 | |
| 20260504011640 | 18 | 186 | 3.2 | 3.2 | 0.00 | 0.00 | 0.00 | 51 | |
| 20260504011136 | 18 | 132 | 0.0 | 0.0 | 0.00 | 0.00 | 0.00 | 51 | |
| 20260504010632 | 18 | 154 | 0.0 | 1.6 | 0.00 | 0.00 | 0.00 | 49 | |
| 20260504010128 | 18 | 160 | 0.0 | 1.6 | 0.00 | 0.00 | 0.00 | 48 | |
| 20260504005625 | 18 | 164 | 0.0 | 0.0 | 0.00 | 0.00 | 0.00 | 48 | |
| 20260504005122 | 19 | 161 | 0.0 | 1.6 | 0.00 | 0.00 | 0.00 | 48 | |
| 20260504004620 | 19 | 128 | 0.0 | 1.6 | 0.00 | 0.00 | 0.00 | 48 | |
| 20260504004117 | 19 | 185 | 0.0 | 1.6 | 0.00 | 0.00 | 0.00 | 47 | |
| 20260504003613 | 20 | 157 | 0.0 | 1.6 | 0.00 | 0.00 | 0.00 | 47 | |
| 20260504003110 | 20 | 162 | 3.2 | 4.8 | 0.00 | 0.00 | 0.00 | 47 | |
| 20260504002607 | 20 | 89 | 1.6 | 4.8 | 0.00 | 0.00 | 0.00 | 46 | |
| 20260504002104 | 20 | 158 | 1.6 | 3.2 | 0.00 | 0.00 | 0.00 | 45 | |
| 20260504001602 | 20 | 174 | 3.2 | 8.0 | 0.00 | 0.00 | 0.00 | 44 | |
| 20260504001057 | 20 | 174 | 1.6 | 8.0 | 0.00 | 0.00 | 0.00 | 43 | |
| 20260504000555 | 20 | 62 | 3.2 | 8.0 | 0.00 | 0.00 | 0.00 | 44 | |
| 20260504000052 | 21 | 72 | 4.8 | 8.0 | 0.00 | 0.00 | 0.00 | 43 | |
| 20260503235551 | 21 | 158 | 3.2 | 8.0 | 0.00 | 0.00 | 0.00 | 43 | |
| 20260503235047 | 21 | 108 | 3.2 | 8.0 | 0.00 | 0.00 | 0.00 | 42 | |
| 20260503234545 | 21 | 49 | 4.8 | 9.7 | 0.00 | 0.00 | 0.00 | 42 | |
| 20260503234043 | 21 | 79 | 4.8 | 8.0 | 0.00 | 0.00 | 0.00 | 42 | |
| 20260503233539 | 21 | 169 | 4.8 | 11.3 | 0.00 | 0.00 | 0.00 | 42 | |
| 20260503233035 | 21 | 194 | 3.2 | 8.0 | 0.00 | 0.00 | 0.00 | 41 | |
| 20260503232532 | 21 | 72 | 3.2 | 14.5 | 0.00 | 0.00 | 0.00 | 41 | |
| 20260503232030 | 21 | 290 | 3.2 | 9.7 | 0.00 | 0.00 | 0.00 | 41 | |
| 20260503231528 | 21 | 196 | 1.6 | 8.0 | 0.00 | 0.00 | 0.00 | 42 | |
| 20260503231024 | 21 | 83 | 4.8 | 12.9 | 0.00 | 0.00 | 0.00 | 41 | |
| 20260503230521 | 21 | 179 | 4.8 | 11.3 | 0.00 | 0.00 | 0.00 | 42 | |
| 20260503230018 | 21 | 191 | 3.2 | 4.8 | 0.00 | 0.00 | 0.00 | 42 | |
| 20260503225515 | 21 | 174 | 8.0 | 12.9 | 0.00 | 0.00 | 0.00 | 41 | |
| 20260503225010 | 21 | 64 | 4.8 | 11.3 | 0.00 | 0.00 | 0.00 | 42 | |
| 20260503224508 | 21 | 335 | 6.4 | 9.7 | 0.00 | 0.00 | 0.00 | 41 | |
| 20260503224005 | 21 | 234 | 8.0 | 14.5 | 0.00 | 0.00 | 0.00 | 40 | |
| 20260503223503 | 21 | 24 | 4.8 | 12.9 | 0.00 | 0.00 | 0.00 | 40 | |
| 20260503222958 | 21 | 268 | 3.2 | 9.7 | 0.00 | 0.00 | 0.00 | 40 | |
| 20260503222457 | 21 | 208 | 6.4 | 22.5 | 0.00 | 0.00 | 0.00 | 41 | |
| 20260503221955 | 21 | 129 | 4.8 | 8.0 | 0.00 | 0.00 | 0.00 | 41 | |
| 20260503221453 | 21 | 6 | 1.6 | 14.5 | 0.00 | 0.00 | 0.00 | 41 | |
| 20260503220950 | 21 | 167 | 4.8 | 11.3 | 0.00 | 0.00 | 0.00 | 42 | |
| 20260503220446 | 21 | 29 | 6.4 | 9.7 | 0.00 | 0.00 | 0.00 | 42 | |
| 20260503215943 | 20 | 35 | 6.4 | 11.3 | 0.00 | 0.00 | 0.00 | 41 | |
| 20260503215440 | 21 | 63 | 3.2 | 8.0 | 0.00 | 0.00 | 0.00 | 40 | |
| 20260503214937 | 21 | 3 | 4.8 | 17.7 | 0.00 | 0.00 | 0.00 | 41 | |
| 20260503214435 | 21 | 144 | 4.8 | 11.3 | 0.00 | 0.00 | 0.00 | 40 | |
| 20260503213932 | 21 | 94 | 1.6 | 8.0 | 0.00 | 0.00 | 0.00 | 41 | |
| 20260503213430 | 21 | 342 | 3.2 | 16.1 | 0.00 | 0.00 | 0.00 | 42 | |
| 20260503212926 | 21 | 151 | 3.2 | 8.0 | 0.00 | 0.00 | 0.00 | 40 | |
| 20260503212424 | 21 | 152 | 0.0 | 3.2 | 0.00 | 0.00 | 0.00 | 41 | |
| 20260503211921 | 20 | 49 | 3.2 | 4.8 | 0.00 | 0.00 | 0.00 | 43 | |
| 20260503211418 | 20 | 59 | 6.4 | 9.7 | 0.00 | 0.00 | 0.00 | 41 | |
| 20260503210913 | 20 | 83 | 4.8 | 14.5 | 0.00 | 0.00 | 0.00 | 40 | |
| 20260503210410 | 20 | 158 | 3.2 | 4.8 | 0.00 | 0.00 | 0.00 | 41 | |
| 20260503205905 | 20 | 80 | 1.6 | 11.3 | 0.00 | 0.00 | 0.00 | 42 | |
| 20260503205402 | 20 | 295 | 6.4 | 9.7 | 0.00 | 0.00 | 0.00 | 42 | |
| 20260503204858 | 19 | 132 | 4.8 | 11.3 | 0.00 | 0.00 | 0.00 | 42 | |
| 20260503204356 | 19 | 196 | 3.2 | 4.8 | 0.00 | 0.00 | 0.00 | 43 | |
| 20260503203853 | 20 | 62 | 8.0 | 11.3 | 0.00 | 0.00 | 0.00 | 42 | |
| 20260503203350 | 20 | 212 | 4.8 | 20.9 | 0.00 | 0.00 | 0.00 | 41 | |
| 20260503202847 | 20 | 179 | 9.7 | 17.7 | 0.00 | 0.00 | 0.00 | 41 | |
| 20260503202345 | 18 | 164 | 4.8 | 14.5 | 0.00 | 0.00 | 0.00 | 43 | |
| 20260503201843 | 18 | 87 | 1.6 | 9.7 | 0.00 | 0.00 | 0.00 | 44 | |
| 20260503201340 | 18 | 99 | 3.2 | 11.3 | 0.00 | 0.00 | 0.00 | 43 | |
| 20260503200838 | 18 | 82 | 6.4 | 11.3 | 0.00 | 0.00 | 0.00 | 42 | |
| 20260503200333 | 18 | 164 | 6.4 | 12.9 | 0.00 | 0.00 | 0.00 | 42 | |
| 20260503195831 | 18 | 102 | 3.2 | 12.9 | 0.00 | 0.00 | 0.00 | 42 | |
| 20260503195327 | 19 | 17 | 6.4 | 16.1 | 0.00 | 0.00 | 0.00 | 43 | |
| 20260503194825 | 19 | 6 | 4.8 | 9.7 | 0.00 | 0.00 | 0.00 | 48 | |
| 20260503194320 | 18 | 106 | 4.8 | 12.9 | 0.00 | 0.00 | 0.00 | 47 | |
| 20260503193816 | 18 | 143 | 3.2 | 9.7 | 0.00 | 0.00 | 0.00 | 47 | |
| 20260503193313 | 17 | 148 | 6.4 | 12.9 | 0.00 | 0.00 | 0.00 | 49 | |
| 20260503192809 | 17 | 175 | 4.8 | 11.3 | 0.00 | 0.00 | 0.00 | 49 | |
| 20260503192305 | 17 | 94 | 1.6 | 8.0 | 0.00 | 0.00 | 0.00 | 51 | |
| 20260503191801 | 17 | 216 | 1.6 | 11.3 | 0.00 | 0.00 | 0.00 | 51 | |
| 20260503191258 | 17 | 202 | 3.2 | 9.7 | 0.00 | 0.00 | 0.00 | 51 | |
| 20260503190754 | 17 | 219 | 6.4 | 9.7 | 0.00 | 0.00 | 0.00 | 51 | |
| 20260503190251 | 17 | 154 | 4.8 | 12.9 | 0.00 | 0.00 | 0.00 | 53 | |
| 20260503185749 | 17 | 356 | 1.6 | 3.2 | 0.00 | 0.00 | 0.00 | 53 | |
| 20260503185244 | 16 | 186 | 1.6 | 12.9 | 0.00 | 0.00 | 0.00 | 52 | |
| 20260503184739 | 16 | 305 | 3.2 | 9.7 | 0.00 | 0.00 | 0.00 | 52 | |
| 20260503184235 | 16 | 98 | 6.4 | 11.3 | 0.00 | 0.00 | 0.00 | 52 | |
| 20260503183732 | 16 | 334 | 3.2 | 4.8 | 0.00 | 0.00 | 0.00 | 56 | |
| 20260503183229 | 15 | 169 | 1.6 | 4.8 | 0.00 | 0.00 | 0.00 | 54 | |
| 20260503182727 | 15 | 205 | 1.6 | 12.9 | 0.00 | 0.00 | 0.00 | 54 | |
| 20260503182226 | 16 | 67 | 4.8 | 9.7 | 0.00 | 0.00 | 0.00 | 52 | |
| 20260503181722 | 15 | 111 | 1.6 | 3.2 | 0.00 | 0.00 | 0.00 | 55 | |
| 20260503181219 | 14 | 40 | 1.6 | 8.0 | 0.00 | 0.00 | 0.00 | 55 | |
| 20260503180715 | 14 | 154 | 4.8 | 4.8 | 0.00 | 0.00 | 0.00 | 56 | |
| 20260503180214 | 15 | 10 | 1.6 | 16.1 | 0.00 | 0.00 | 0.00 | 56 | |
| 20260503175710 | 15 | 18 | 3.2 | 9.7 | 0.00 | 0.00 | 0.00 | 55 | |
| 20260503175208 | 15 | 203 | 1.6 | 4.8 | 0.00 | 0.00 | 0.00 | 59 | |
| 20260503174704 | 15 | 145 | 1.6 | 9.7 | 0.00 | 0.00 | 0.00 | 57 | |
| 20260503174202 | 13 | 169 | 1.6 | 4.8 | 0.00 | 0.00 | 0.00 | 59 | |
| 20260503173656 | 13 | 104 | 3.2 | 4.8 | 0.00 | 0.00 | 0.00 | 59 | |
| 20260503173153 | 12 | 30 | 4.8 | 8.0 | 0.00 | 0.00 | 0.00 | 62 | |
| 20260503172650 | 13 | 181 | 3.2 | 9.7 | 0.00 | 0.00 | 0.00 | 62 | |
| 20260503172147 | 13 | 136 | 4.8 | 9.7 | 0.00 | 0.00 | 0.00 | 62 | |
| 20260503171643 | 13 | 71 | 4.8 | 9.7 | 0.00 | 0.00 | 0.00 | 61 | |
| 20260503171141 | 13 | 198 | 1.6 | 3.2 | 0.00 | 0.00 | 0.00 | 62 | |
| 20260503170638 | 13 | 127 | 0.0 | 3.2 | 0.00 | 0.00 | 0.00 | 63 | |
| 20260503170135 | 13 | 133 | 1.6 | 4.8 | 0.00 | 0.00 | 0.00 | 64 | |
| 20260503150526 | 12 | 58 | 11.3 | 20.9 | 0.00 | 0.00 | 0.00 | 60 | |
| 20260503131419 | 9 | 161 | 4.8 | 11.3 | 0.00 | 0.00 | 0.00 | 61 | |
| 20260503130916 | 9 | 82 | 1.6 | 14.5 | 0.00 | 0.00 | 0.00 | 61 | |
| 20260503130414 | 9 | 194 | 3.2 | 14.5 | 0.00 | 0.00 | 0.00 | 61 | |
| 20260503110817 | 7 | 176 | 0.0 | 3.2 | 0.00 | 0.00 | 0.00 | 64 | |
| 20260503110315 | 7 | 161 | 0.0 | 1.6 | 0.00 | 0.00 | 0.00 | 64 | |
| 20260503100241 | 7 | 179 | 1.6 | 3.2 | 0.00 | 0.00 | 0.00 | 60 |